Find Starlink 5323

NORAD ID: 55279 Int'l Des: 2023-010 Owner: SPXS Country: US Constellation: starlink decayed
LEOCIRCULAR
Vis

Historical Track — 11. Juli 2025

3D-Globus wird geladen...

Über Starlink 5323

Beschreibung wird geladen...

Höhenverlauf

Loading altitude history...

Zweizeiliger Elementsatz

1 55279U 23010L 25192.07310058 .06641567 44340-5 22165-3 0 9991
2 55279 69.9754 273.9677 0010987 286.0493 144.5726 16.43667554136756
Epoch: 11. Juli 2025 • Age: 7201 hours

Aktueller Status

Position data unavailable
Startdatum 19. Jan. 2023
Alter 3.2 years
Verglühungsdatum 11. Juli 2025
Typ internet

Technische Details

Klassifizierung Payload
Masse 305.00 kg
Trockenmasse 290.00 kg
Gesamtmasse 305.00 kg
Länge 0.20 m
Durchmesser 2.80 m
Spannweite 9.00 m
Form Box + pan
Hersteller SPXS
Bus-Typ Starlink
Phasenstatus Reentered
Besitzer/Staat SPXS/US

Most Searched